This demonstration page uses our WeatherBlox Daily Observations layout. Learn more.

Left ArrowRight Arrow

Hourly Observations for May 28, 2015

Temp ( °F °C ) Dew Point ( °F °C ) Humidity (%) Winds ( mph kmh ) Pressure ( in mb ) Visibility ( mi km ) Precip ( " mm )
12:53 am 00:53 Clear 66 18.9 58 14.4 75 75 SE 9 15 30.00 1016 10 16 0.00 0.00
1:53 am 01:53 Mostly Cloudy 65 18.3 58 14.4 78 78 SE 8 13 29.97 1015 10 16 0.00 0.00
2:53 am 02:53 Clear 63 17.2 58 14.4 84 84 SE 9 15 29.97 1015 10 16 0.00 0.00
3:53 am 03:53 Clear 63 17.2 58 14.4 84 84 SSE 10 17 29.96 1015 10 16 0.00 0.00
4:53 am 04:53 Clear 61 16.1 58 14.4 90 90 SSE 7 11 29.98 1015 10 16 0.00 0.00
5:53 am 05:53 Clear 61 16.1 59 15 93 93 SSE 7 11 30.00 1016 10 16 0.00 0.00
6:53 am 06:53 Sunny 60 15.6 58 14.4 93 93 SE 7 11 30.00 1016 10 16 0.00 0.00
7:53 am 07:53 Sunny 63 17.2 57 13.9 81 81 SE 7 11 30.00 1016 10 16 0.00 0.00
8:53 am 08:53 Sunny 64 17.8 59 15 84 84 SE 9 15 30.00 1016 10 16 0.00 0.00
9:53 am 09:53 Sunny 67 19.4 61 16.1 81 81 SE 10 17 29.99 1016 10 16 0.00 0.00
10:53 am 10:53 Sunny 70 21.1 60 15.6 71 71 SSE 7 11 29.96 1015 10 16 0.00 0.00
11:53 am 11:53 undefined N/A N/A N/A undefined N/A N/A N/A 0.00 0.00
12:53 pm 12:53 Sunny 71 21.7 59 15 66 66 S 13 20 29.97 1015 10 16 0.00 0.00
1:53 pm 13:53 Sunny 71 21.7 60 15.6 68 68 S 13 20 29.96 1015 10 16 0.00 0.00
2:53 pm 14:53 Mostly Sunny 72 22.2 61 16.1 68 68 S 12 19 29.93 1014 10 16 0.00 0.00
3:53 pm 15:53 Sunny 76 24.4 61 16.1 60 60 SSE 13 20 29.91 1013 10 16 0.00 0.00
4:53 pm 16:53 Sunny 77 25 59 15 54 54 S 9 15 29.87 1011 10 16 0.00 0.00
5:53 pm 17:53 Mostly Cloudy 76 24.4 59 15 56 56 S 13 20 29.85 1011 10 16 0.00 0.00
6:53 pm 18:53 Mostly Sunny 75 23.9 60 15.6 60 60 S 10 17 29.85 1011 10 16 0.00 0.00
7:53 pm 19:53 Partly Cloudy 73 22.8 59 15 62 62 S 7 11 29.87 1011 10 16 0.00 0.00
8:53 pm 20:53 Partly Cloudy 72 22.2 63 17.2 73 73 S 7 11 29.90 1013 10 16 0.00 0.00
9:53 pm 21:53 Mostly Clear 70 21.1 63 17.2 79 79 SSE 6 9 29.88 1012 10 16 0.00 0.00
10:53 pm 22:53 Cloudy with Thunderstorms 68 20 63 17.2 84 84 SW 22 35 29.90 1013 3 4 0.15 3.81
11:00 pm 23:00 Cloudy with Strong Thunderstorms 64 18 61 16 88 88 WSW 12 19 29.91 1013 1 2 0.00 0.00
11:06 pm 23:06 Cloudy with Thunderstorms 64 17.8 60 15.6 87 87 W 10 17 29.91 1013 2 3 0.20 5.08
11:12 pm 23:12 Cloudy with Nearby Thunderstorms 63 17 61 16 94 94 W 7 11 29.91 1013 8 13 0.00 0.00
11:23 pm 23:23 Cloudy with Nearby Thunderstorms 62 16.7 59 15 90 90 NW 7 11 29.91 1013 10 16 0.20 5.08
11:35 pm 23:35 Cloudy 63 17.2 60 15.6 90 90 Calm 29.91 1013 10 16 0.20 5.08
11:53 pm 23:53 Mostly Cloudy 63 17.2 59 15 87 87 Calm 29.91 1013 10 16 0.21 5.33

Powered by AerisWeather